Location: Bouchavesnes-Bergen
(49.9859°N, 2.9203°E)
Time: 23:57:59
(UTC+00:00)

USA 229 DEB - Pass Details

Date: 09 March 2021
Orbit: 960 x 1252 km, 63.4° (Epoch: 12 April)

Event Time Altitude Azimuth Distance (km) Brightness Sun altitude
Exits shadow 02:22:54 46° 351° (N) 1,404 4.4 -35.3°
Drops below altitude 10° 02:28:44 10° 41° (NE) 2,980 6.8 -34.6°
Sets 02:31:39 0° 47° (NE) 3,987 7.8 -34.3°
